Location: Lake Almanor
(40.2485°N, 121.1442°W)
Time: 19:19:54
(UTC-08:00)

STARLINK-1119 - Pass Details

Date: 30 January 2020
Orbit: 554 x 555 km, 53.0° (Epoch: 28 February)

Event Time Altitude Azimuth Distance (km) Brightness Sun altitude
Rises 19:36:00 0° 304° (NW) 2,737 8.0 -26.0°
Reaches altitude 10° 19:38:18 10° 298° (WNW) 1,839 7.0 -26.4°
Enters shadow 19:41:57 44° 241° (WSW) 773 4.6 -27.1°
